Weather History for Burley, ID

Change the Weather History Date:

Monday, March 11, 2013

  Actual Average Record
Temperature  
Mean Temperature 47 °F 38 °F  
Max Temperature 55 °F 49 °F 66 °F (1989)
Min Temperature 38 °F 27 °F 7 °F (1969)
Degree Days  
Heating Degree Days 18 27  
Month to date heating degree days 278 312  
Since 1 July heating degree days 5036 5334  
Cooling Degree Days 0 0  
Month to date cooling degree days 0 0  
Year to date cooling degree days 0 0  
Moisture  
Dew Point 27 °F    
Average Humidity 50    
Maximum Humidity 60    
Minimum Humidity 39    
Precipitation  
Precipitation 0.00 in 0.03 in 0.44 in (1995)
Month to date precipitation 0.12 0.36  
Year to date precipitation 0.48 2.04  
Sea Level Pressure  
Sea Level Pressure 30.16 in    
Wind  
Wind Speed 18 mph (WSW)    
Max Wind Speed 29 mph    
Max Gust Speed 39 mph    
Visibility 10 miles    
Events      
T = Trace of Precipitation, MM = Missing Value Source: NWS Daily Summary

Daily Weather History Graph

Daily Weather History Graph

Search for Another Location

Airport:

Trip Planner

Search our weather history database for the weather conditions in past years. The results will help you decide how hot, cold, wet, or windy it might be!

Date:

Astronomy

Mar. 11, 2013 Rise Set
Actual Time 7:53 AM MDT 7:37 PM MDT
Civil Twilight 7:25 AM MDT 8:05 PM MDT
Nautical Twilight 6:52 AM MDT 8:37 PM MDT
Astronomical Twilight 6:19 AM MDT 9:11 PM MDT
Moon 7:28 AM MDT (3/11) 7:55 PM MDT (3/11)
Length of Visible Light 12h 40m
Length of Day
11h 43m
Waning Crescent, 0% of the Moon is Illuminated
Mar 11
Waning Crescent
Mar 11
New
Mar 19
First Quarter
Mar 27
Full
Apr 2
Last Quarter

Hourly Weather History & Observations

Time (MDT) Temp. Windchill Dew Point Humidity Pressure Visibility Wind Dir Wind Speed Gust Speed Precip Events Conditions
12:53 AM 39.0 °F 31.4 °F 19.9 °F 46% 30.23 in 10.0 mi WSW 12.7 mph - N/A   Clear
1:53 AM 42.1 °F 34.2 °F 19.9 °F 41% 30.20 in 10.0 mi WSW 16.1 mph - N/A   Overcast
2:53 AM 43.0 °F 36.0 °F 19.9 °F 40% 30.20 in 10.0 mi WSW 13.8 mph - N/A   Overcast
4:53 AM 39.9 °F 32.1 °F 19.9 °F 45% 30.17 in 10.0 mi WSW 13.8 mph - N/A   Clear
5:53 AM 42.1 °F 34.9 °F 21.0 °F 43% 30.17 in 10.0 mi WSW 13.8 mph - N/A   Overcast
6:53 AM 42.1 °F 34.9 °F 21.0 °F 43% 30.18 in 10.0 mi WSW 13.8 mph 21.9 mph N/A   Overcast
7:53 AM 42.1 °F 35.2 °F 21.9 °F 45% 30.19 in 10.0 mi WSW 12.7 mph - N/A   Overcast
8:53 AM 43.0 °F 35.4 °F 24.1 °F 47% 30.20 in 10.0 mi SW 16.1 mph - N/A   Overcast
9:53 AM 45.0 °F 38.2 °F 27.0 °F 49% 30.21 in 10.0 mi WSW 15.0 mph 24.2 mph N/A   Overcast
10:53 AM 48.0 °F - 28.0 °F 46% 30.20 in 10.0 mi West 23.0 mph 31.1 mph N/A   Partly Cloudy
11:53 AM 48.9 °F - 30.0 °F 48% 30.18 in 10.0 mi West 19.6 mph 34.5 mph N/A   Clear
12:53 PM 48.9 °F - 32.0 °F 52% 30.17 in 10.0 mi West 20.7 mph 35.7 mph N/A   Overcast
1:53 PM 50.0 °F - 32.0 °F 50% 30.15 in 10.0 mi West 21.9 mph 32.2 mph N/A   Overcast
2:53 PM 51.1 °F - 33.1 °F 50% 30.12 in 10.0 mi West 27.6 mph 39.1 mph N/A   Scattered Clouds
3:53 PM 51.1 °F - 30.9 °F 46% 30.11 in 10.0 mi West 21.9 mph 33.4 mph N/A   Mostly Cloudy
5:53 PM 51.1 °F - 32.0 °F 48% 30.10 in 10.0 mi West 21.9 mph 34.5 mph N/A   Clear
6:53 PM 48.9 °F - 32.0 °F 52% 30.10 in 10.0 mi West 16.1 mph 26.5 mph N/A   Clear
7:53 PM 46.9 °F - 33.1 °F 59% 30.11 in 10.0 mi West 15.0 mph 27.6 mph N/A   Clear
8:53 PM 46.0 °F 39.9 °F 32.0 °F 58% 30.12 in 10.0 mi West 13.8 mph 21.9 mph N/A   Clear
9:53 PM 45.0 °F 37.4 °F 30.9 °F 58% 30.14 in 10.0 mi West 18.4 mph 24.2 mph N/A   Clear
10:53 PM 43.0 °F 34.5 °F 28.9 °F 58% 30.14 in 10.0 mi West 19.6 mph 27.6 mph N/A   Clear
11:53 PM 42.1 °F 34.2 °F 28.9 °F 60% 30.16 in 10.0 mi West 16.1 mph - N/A   Clear